Voltar ao catálogo

STARLINK-34767

AtivoComunicaçõesVLEO
NORAD 66507·PAYLOAD·🇺🇸 United States

Lançado Nov 15, 2025 de Cape Canaveral Space Force Station

Loading…

Próximas Passagens (próximas 24 horas)

TLE

AtualizadoSource: CelesTrak SupGP

Época: Sep 14, 2026, 22:37 UTC

1 66507C 25263Y   26257.94284722 -.00012771  00000+0 -46253-3 0  2571
2 66507  43.0024   2.1415 0001557 268.5001 316.6279 15.27587523    12

Acompanhe STARLINK-34767 em tempo real com AllMySat

Download on the App Store